Dewpoint
25 16 13 13 18 21 24 22 20 16 18 17 20 20 18 18 18 19 17 18 17 13 11 10 13 10 30 55 58 59 59 58 58 58 58 58 58 58 58 58 58 57 57 56 57 57 58 57 57 57 58 58 57 57 58 58 59 60 61 61 60 59 60 61 60 60 59 58 57 56 57 57 56 58 57 58 57 59 60 61 62 62 62 63 62 62
26 14 17 20 21 24 26 28 28 27 24 18 19 20 16 19 18 17 13 17 25 17 15 16 18 20 32 52 58 58 57 57 57 57 57 58 58 58 58 58 57 56 53 56 55 56 57 57 56 57 57 58 57 57 57 58 59 59 60 61 59 58 59 60 61 60 58 56 57 57 56 55 55 57 57 56 55 56 58 59 60 61 61 61 62 62
18 15 22 24 27 31 33 31 29 24 26 26 21 22 18 15 16 16 20 26 26 22 16 20 21 26 40 49 56 56 56 57 57 57 57 57 57 58 58 58 57 55 53 54 55 56 57 56 56 57 57 57 57 57 57 58 58 59 59 59 58 58 58 58 60 59 57 56 57 56 55 55 51 52 55 55 56 56 54 54 56 57 57 60 61 62
15 17 22 24 29 27 25 31 31 29 28 24 18 15 13 15 12 10 24 29 28 25 19 19 24 24 31 32 43 48 55 49 54 56 56 58 57 57 58 58 57 55 53 53 54 56 56 56 56 57 57 57 56 57 56 57 58 58 58 58 57 57 57 58 59 58 56 56 55 53 53 53 53 54 56 54 54 54 53 53 54 55 54 56 58 61
14 19 28 27 28 25 24 29 29 24 20 28 25 18 17 16 16 12 17 27 32 29 29 19 21 19 24 42 43 43 44 50 53 53 54 56 57 57 56 57 57 56 53 52 54 55 55 55 56 56 56 56 57 57 57 57 57 57 57 57 56 55 55 57 58 57 56 55 53 54 54 54 53 53 53 53 52 53 56 53 53 53 53 55 56 58
15 19 27 25 26 25 23 23 26 24 17 21 27 21 19 19 19 23 27 23 21 17 26 17 16 13 20 25 38 41 40 46 49 52 53 55 55 55 55 55 54 54 53 52 53 55 55 55 55 56 56 57 57 57 57 57 57 57 57 56 55 54 55 56 55 56 56 55 53 53 53 52 51 51 51 50 50 51 51 52 52 51 51 52 53 56
16 23 24 22 26 26 23 22 27 25 21 16 21 25 23 20 24 24 21 20 13 12 23 28 14 9 22 22 23 25 34 42 47 50 51 52 53 54 54 53 53 53 52 51 52 54 55 54 55 56 57 57 57 57 57 56 56 56 57 55 54 54 55 55 55 56 56 54 53 53 52 52 52 51 49 50 51 52 52 51 50 49 50 50 52 53
20 20 26 28 28 27 25 20 27 23 19 16 23 24 22 21 20 23 25 21 17 28 30 27 21 15 14 18 26 29 30 40 44 47 49 51 51 52 52 52 52 53 53 52 52 54 55 54 56 57 57 57 57 57 57 56 56 56 56 55 54 55 55 54 55 55 55 54 53 52 51 52 51 51 51 51 52 52 52 49 49 49 49 50 51 53
25 21 25 24 26 23 21 22 29 23 18 19 27 21 20 17 23 27 22 21 24 17 14 21 25 15 16 21 27 32 33 37 42 45 48 49 51 52 52 52 52 53 53 52 52 53 54 54 55 57 57 57 57 58 57 57 56 55 55 55 55 55 54 53 54 54 54 54 53 52 52 52 51 52 53 53 53 51 50 48 48 48 49 50 50 51
23 18 21 20 21 17 22 23 27 21 19 24 28 24 27 29 30 29 24 20 19 14 11 19 25 13 16 22 20 22 24 32 37 42 45 47 49 51 51 51 52 52 52 52 52 53 54 54 55 56 57 57 57 57 57 56 56 55 55 55 54 54 53 53 53 54 53 53 53 52 51 51 53 53 52 51 50 49 48 47 47 48 48 49 50 50
21 36 32 19 17 20 21 22 25 20 25 25 21 16 17 20 24 28 22 23 20 8 14 21 25 17 14 21 19 18 21 27 26 26 32 44 46 49 50 51 52 52 52 52 53 53 53 53 54 56 57 57 56 57 57 57 56 55 56 55 54 53 53 52 52 52 52 52 52 52 51 52 52 52 52 50 49 48 47 47 47 47 48 48 49 51
22 19 20 20 30 18 16 11 15 17 19 21 22 18 15 17 19 17 20 19 13 11 17 21 24 19 13 16 21 28 28 27 27 25 26 35 44 46 49 50 52 52 51 52 53 52 52 53 53 55 56 56 56 57 57 56 55 55 55 54 54 52 52 51 51 51 51 52 52 52 52 52 53 52 52 51 50 48 47 47 47 47 47 47 48 49
22 18 16 19 39 15 13 11 10 10 16 16 20 18 15 11 12 8 14 8 8 13 17 25 25 17 16 20 22 27 29 30 31 29 28 30 34 45 48 50 52 51 51 52 52 52 52 53 53 55 56 56 56 57 57 57 55 55 55 54 54 53 52 51 51 51 51 52 52 52 53 53 53 53 52 52 51 49 48 47 47 46 46 46 47 48
16 22 19 17 15 26 15 15 9 7 11 15 12 17 13 6 4 3 7 9 15 19 21 23 25 16 21 22 27 32 35 36 39 41 36 33 34 44 49 49 49 49 50 51 51 51 51 53 53 55 56 56 56 57 57 56 55 55 55 54 54 52 52 51 51 51 52 53 53 53 54 54 54 53 53 53 52 51 49 48 47 47 46 46 47 47
8 11 16 16 15 19 14 15 11 17 12 11 15 14 16 14 7 2 10 4 11 17 20 23 17 16 16 18 29 33 37 43 45 45 45 45 46 47 48 48 48 49 48 50 49 49 50 50 52 54 54 55 55 56 57 57 56 55 54 54 53 52 52 52 52 52 53 54 54 54 55 56 55 56 54 55 53 51 49 48 47 47 47 46 46 47
13 14 19 20 17 12 12 15 13 10 12 14 17 14 14 14 20 10 16 17 17 14 13 16 14 21 22 26 32 34 40 43 45 46 46 46 47 47 48 48 48 49 49 49 49 50 50 50 50 52 53 54 55 56 57 57 56 55 54 54 53 53 53 53 54 55 55 54 54 54 55 55 55 55 54 54 53 52 49 48 48 48 47 47 47 48
13 12 17 19 15 14 12 15 12 7 13 16 7 12 17 20 21 17 15 20 14 15 9 15 18 21 25 27 28 31 40 42 44 45 45 46 47 47 47 48 49 49 50 49 50 50 50 51 51 51 52 53 54 54 56 56 56 55 54 53 53 53 54 54 54 54 54 55 55 55 54 54 54 54 53 52 53 51 50 49 49 49 48 48 48 50
16 16 22 14 13 14 16 12 12 13 14 9 10 12 21 24 25 20 12 12 7 6 9 16 11 16 20 18 29 28 38 39 42 43 44 44 46 47 47 47 48 49 50 51 51 50 51 51 51 51 52 53 54 55 55 56 56 55 54 54 55 54 53 54 54 54 54 54 54 54 54 53 54 53 53 53 52 52 51 50 50 49 49 49 50 51
18 10 13 14 15 15 18 13 11 15 13 12 13 15 17 11 9 13 17 7 6 6 5 14 17 18 21 22 27 26 34 37 40 42 43 45 45 46 47 48 48 49 50 50 51 51 51 51 51 51 52 53 53 54 54 54 55 56 55 55 55 54 54 54 54 54 54 55 55 54 54 53 53 53 54 54 53 52 52 51 50 49 49 49 50 52
25 13 17 17 15 16 18 14 9 19 13 12 12 11 19 21 22 13 15 18 14 3 6 15 17 11 22 25 26 27 28 36 39 41 42 44 45 46 46 47 46 48 48 49 49 49 50 50 50 51 51 53 53 53 53 54 54 56 56 55 55 54 54 55 55 55 54 54 54 54 53 53 53 53 53 54 53 52 52 51 50 50 50 50 51 49
15 21 10 18 18 14 15 16 19 13 10 10 15 16 17 19 22 18 20 14 14 9 5 7 7 17 22 28 29 29 30 33 40 41 41 43 44 45 46 47 47 47 48 47 48 49 49 49 49 50 50 51 52 53 52 53 53 54 55 55 55 54 54 55 55 55 54 54 54 53 53 53 53 53 54 54 53 53 53 52 51 50 50 51 50 50
18 13 16 24 16 15 16 18 15 12 12 16 20 15 15 16 15 11 8 20 19 14 7 7 6 18 24 34 35 34 36 34 39 41 41 43 44 44 45 46 46 47 47 48 48 49 49 49 49 50 50 51 52 52 52 51 52 53 54 54 54 54 54 54 54 55 55 54 53 53 53 53 53 53 53 54 53 53 53 52 52 51 51 50 50 50
22 23 21 14 17 15 15 15 20 17 14 15 16 15 20 19 17 14 8 13 18 20 16 17 14 17 28 33 36 36 37 37 41 42 42 43 43 44 44 45 45 45 46 47 48 48 48 48 48 49 50 50 50 50 51 50 51 52 53 54 54 54 54 54 54 55 55 54 53 53 53 53 53 53 53 54 54 53 53 53 53 52 51 50 50 51
46 19 18 10 20 20 21 21 20 21 19 14 17 24 20 15 18 19 18 19 16 16 12 12 10 15 27 34 38 38 39 39 41 42 43 43 43 44 44 45 46 46 47 47 47 47 47 48 49 49 49 50 50 50 50 50 50 51 52 53 53 53 53 54 54 54 54 54 53 53 53 53 53 53 53 53 54 53 53 53 53 53 52 51 51 50
14 18 16 14 12 12 17 19 17 19 16 17 15 20 22 23 25 24 22 22 17 17 17 15 9 13 27 32 31 31 38 40 41 42 42 43 42 43 44 45 45 46 46 46 47 47 47 48 48 49 48 49 50 50 50 51 50 50 51 51 52 52 53 53 53 54 54 54 53 53 53 52 53 53 53 53 54 53 54 53 53 53 52 52 52 52
21 23 23 13 9 7 5 5 8 8 11 15 21 21 22 18 19 14 12 15 12 15 18 12 8 21 27 28 28 29 31 37 40 41 42 41 43 44 45 45 45 45 45 45 46 46 47 47 47 48 48 48 49 50 50 50 50 50 51 51 51 52 52 52 52 53 53 53 53 52 52 52 52 53 53 53 53 53 54 54 53 53 53 53 52 53
25 27 25 23 17 12 16 17 24 23 18 13 15 20 21 24 24 20 18 13 12 15 13 18 24 23 25 25 27 29 31 35 37 38 39 40 40 42 42 43 43 43 43 44 44 44 45 46 45 45 46 46 47 47 49 49 50 49 51 52 52 51 52 52 52 53 54 53 53 52 52 52 52 53 52 53 53 53 53 54 54 54 54 54 54 53
28 23 24 23 21 20 19 17 18 21 17 19 18 19 23 24 23 20 11 11 20 19 12 20 24 24 23 26 27 29 31 33 35 36 36 37 38 38 39 39 42 39 40 40 41 41 42 42 43 43 43 43 43 46 46 47 49 50 51 52 52 52 51 51 52 52 52 53 53 52 52 52 52 52 52 52 52 52 53 53 53 54 54 54 53 53
28 22 24 27 22 20 21 20 24 24 26 26 26 24 23 24 24 18 19 21 21 15 17 21 23 23 23 25 28 29 31 33 35 37 37 38 38 39 39 39 40 40 40 40 39 39 39 38 39 39 39 39 40 42 43 45 46 48 48 50 50 50 51 51 51 51 51 51 51 51 51 51 51 51 51 52 52 52 52 53 53 53 53 53 53 53
24 23 28 27 23 23 23 22 24 24 25 25 26 26 25 25 25 25 24 25 22 20 23 25 25 23 24 26 28 29 31 34 35 36 38 38 39 39 39 39 40 40 40 39 39 39 39 38 38 37 37 36 36 36 38 40 42 44 47 48 48 49 50 50 50 51 50 51 51 50 51 51 50 51 51 51 52 52 52 52 52 52 53 53 53 53
27 21 29 26 23 22 23 24 28 28 27 27 26 26 25 24 24 25 25 25 25 24 24 25 24 23 25 27 29 29 31 30 30 31 33 36 38 38 38 38 38 38 38 39 39 39 40 39 38 38 38 37 37 35 36 37 37 38 41 44 45 48 48 49 49 50 50 51 50 50 50 50 50 50 51 51 51 51 52 52 52 52 53 53 53 53
29 20 27 26 22 22 22 25 26 27 26 26 25 27 27 24 22 25 23 25 22 22 23 23 22 19 25 27 28 27 27 27 27 27 29 32 36 37 37 37 37 37 37 38 38 38 39 40 40 38 37 37 38 38 36 36 36 36 36 37 38 42 45 48 48 49 49 49 49 49 50 50 50 50 51 51 52 52 52 51 50 51 51 51 50 50
25 23 19 20 19 16 19 23 25 25 23 20 19 25 26 26 26 25 26 27 26 23 21 21 22 23 24 30 25 25 25 25 26 26 26 27 30 34 35 34 33 33 33 35 36 38 38 39 40 39 38 37 38 39 39 37 37 37 37 38 38 38 42 43 45 46 47 46 47 49 50 50 50 50 50 51 52 51 51 51 50 50 50 51 50 51
26 22 19 22 16 16 20 22 22 17 10 13 23 28 28 25 25 24 23 25 26 27 22 23 25 25 25 26 25 25 25 26 27 29 29 25 24 26 29 33 34 32 30 28 29 32 35 39 40 41 39 38 39 40 40 40 39 38 39 38 37 37 37 36 38 40 42 43 43 46 47 48 49 49 49 49 49 49 50 50 50 49 50 50 48 48
23 22 18 20 15 14 18 18 14 8 12 25 28 28 30 27 25 23 24 25 25 25 25 24 25 25 26 27 26 26 27 27 27 26 27 28 27 25 25 26 29 32 31 30 29 31 33 35 36 39 41 41 42 41 41 39 40 39 39 39 37 38 38 36 35 36 37 36 37 38 43 46 47 47 46 45 45 46 47 48 47 47 48 49 50 49
18 21 17 14 11 12 10 7 7 8 22 27 26 27 27 25 25 23 22 23 24 25 25 23 24 25 26 26 27 27 25 25 23 24 25 27 29 30 26 26 27 28 30 33 30 31 33 36 38 40 41 42 40 40 43 42 41 41 42 42 41 38 39 39 38 37 37 37 37 36 38 40 43 44 43 41 41 42 42 42 43 43 43 44 45 45
23 21 19 12 15 11 8 5 9 21 22 22 22 23 24 23 24 21 18 19 25 23 24 22 22 24 24 24 26 27 28 27 21 20 23 24 26 27 27 26 27 27 28 28 31 30 32 33 35 38 40 37 37 35 38 41 41 40 41 42 42 40 41 42 41 40 40 39 37 38 39 39 40 41 40 39 39 39 39 39 39 40 40 41 41 42
21 14 18 16 11 13 13 10 8 6 9 17 22 25 27 28 27 25 19 18 23 22 25 22 21 22 23 23 24 25 27 25 21 19 22 24 25 26 25 26 26 26 26 26 27 27 28 30 32 34 35 33 32 31 35 37 39 38 39 40 41 41 41 41 41 41 41 40 39 39 38 40 38 39 39 37 37 38 38 37 38 38 39 38 39 39
24 22 21 19 11 11 9 11 8 10 10 16 22 24 25 25 26 24 20 17 21 22 23 22 21 22 23 22 22 24 23 21 21 22 22 24 24 25 24 25 25 26 26 25 26 26 27 28 31 34 30 29 28 29 33 35 35 33 33 35 36 39 39 40 41 42 43 43 43 42 42 40 39 37 38 37 37 37 36 37 37 38 38 38 39 40
23 21 18 12 10 9 8 7 8 3 15 21 24 25 26 25 26 20 13 10 19 22 22 21 21 21 22 24 22 20 21 16 20 22 23 24 25 26 25 25 26 26 25 26 26 28 30 30 27 27 27 27 27 29 30 32 32 35 35 34 35 35 36 38 41 42 43 42 40 39 38 39 41 39 37 36 37 38 38 39 39 38 38 39 40 40
18 19 19 11 9 14 14 11 13 15 22 25 24 26 23 27 22 15 10 13 21 22 22 22 21 22 22 21 20 18 20 20 22 23 25 25 26 27 28 29 28 28 27 27 28 34 28 27 28 27 27 27 28 29 30 31 30 32 33 34 32 33 32 33 35 37 38 39 38 38 38 38 41 40 39 37 37 38 40 39 38 37 38 38 37 38
14 15 18 16 16 11 7 14 14 13 18 23 24 27 24 22 15 12 16 21 23 22 23 23 23 23 24 23 22 21 22 25 29 27 26 26 27 27 27 28 29 29 30 31 33 32 30 29 29 29 29 29 29 30 30 30 29 31 31 32 30 30 32 33 33 34 37 37 37 37 38 38 38 40 40 40 40 38 38 39 39 38 38 37 37 36
14 13 17 14 16 11 9 11 13 13 18 25 26 22 25 18 16 21 23 25 26 24 24 24 24 24 24 25 25 24 25 26 26 26 27 28 28 29 29 29 29 29 30 30 30 31 33 31 30 30 30 30 30 30 30 29 29 30 32 30 30 31 32 33 33 33 36 36 37 38 38 39 39 38 39 40 40 38 38 39 40 39 38 38 37 37
19 18 16 16 22 13 11 10 11 17 22 26 25 19 23 25 23 26 27 25 27 27 26 25 26 26 26 26 26 26 26 26 27 27 28 28 29 29 30 30 30 30 31 31 31 31 33 31 31 31 32 31 32 31 31 30 30 31 31 30 31 32 33 33 34 33 33 35 37 39 39 39 39 40 40 40 40 39 38 38 39 39 38 38 39 38
17 22 21 18 23 18 17 20 22 27 28 29 28 27 30 32 34 34 32 32 29 29 30 28 27 29 28 27 27 27 27 26 27 28 27 28 28 29 29 30 30 30 31 31 31 32 32 31 31 31 31 31 32 32 32 32 31 32 31 31 32 32 32 33 34 34 34 33 33 35 37 38 39 40 39 40 40 38 38 37 38 37 38 38 37 38
21 23 23 24 24 26 27 29 31 29 31 30 32 33 31 32 32 34 33 29 31 30 30 29 28 28 29 28 28 27 26 27 27 28 28 28 28 28 29 29 29 29 30 30 30 30 31 30 30 30 30 30 31 32 33 33 32 32 32 33 33 33 34 34 34 34 34 34 34 33 33 34 35 35 37 37 38 37 37 36 36 35 35 36 37 36
19 18 20 21 22 16 15 24 25 27 28 28 29 30 31 30 29 30 28 29 29 29 29 29 29 29 29 28 27 27 27 27 27 27 27 27 27 27 27 27 27 28 28 29 29 30 29 29 28 28 29 29 29 30 31 32 32 33 33 34 34 34 34 34 34 34 34 34 34 34 35 34 33 34 35 35 36 36 37 37 37 36 37 37 37 36
15 19 17 18 17 9 9 21 23 24 24 26 26 26 26 27 29 30 29 29 30 30 30 30 29 28 27 27 27 27 26 25 25 25 26 26 26 26 26 26 26 27 27 28 28 28 27 27 27 27 28 28 28 29 29 30 31 32 33 33 34 34 34 34 34 33 33 33 33 34 35 35 34 35 36 35 35 36 36 35 36 36 36 38 36 37
15 22 8 17 19 20 20 21 23 24 24 24 25 26 26 26 27 28 29 29 29 28 27 27 27 26 26 26 26 25 25 25 25 25 25 26 26 26 27 27 27 27 27 27 27 28 27 27 27 27 28 28 28 29 29 29 30 30 31 32 33 34 33 33 33 34 33 33 33 33 34 35 35 36 36 35 34 33 34 36 35 37 37 37 40 39
19 15 16 17 14 12 14 19 23 17 13 20 23 25 26 27 27 27 27 27 27 26 25 25 25 25 25 26 26 25 24 25 25 25 25 26 26 26 27 27 27 27 27 27 27 27 26 27 28 28 28 29 29 29 29 29 30 30 30 31 32 33 33 33 33 33 33 33 33 33 34 36 37 36 35 36 35 34 33 31 34 34 35 36 36 37
17 16 15 3 9 8 15 22 24 21 19 21 25 26 27 28 27 28 27 27 27 27 25 25 24 24 24 24 26 25 24 25 25 25 26 26 27 27 28 28 28 28 28 28 27 27 27 27 29 29 29 29 30 30 30 30 30 31 31 31 31 31 32 32 32 32 33 33 33 33 33 33 34 35 35 36 35 35 33 32 33 33 34 34 35 34